This is the latest recevied weather packets stored in our database for station/object N4ASP-13. If no packets are shown the sender has not sent any weather packets the latest 10 day(s).
| Time | Temp. | Humidity | Pressure | Rain* | Wind** | Luminosity | Snow |
|---|---|---|---|---|---|---|---|
| 1777662637 | 17.78° C | 50% | 1013.1 hPa | 0 mm | - | 898 W/m² | - |
| 1777662573 | 17.78° C | 50% | 1013.1 hPa | 0 mm | - | 612 W/m² | - |
| 1777662512 | 17.78° C | 50% | 1013.2 hPa | 0 mm | - | 612 W/m² | - |
| 1777662453 | 17.78° C | 52% | 1013.2 hPa | 0 mm | - | 895 W/m² | - |
| 1777662393 | 17.78° C | 51% | 1013.2 hPa | 0 mm | - | 895 W/m² | - |
| 1777662330 | 17.78° C | 49% | 1013.1 hPa | 0 mm | - | 979 W/m² | - |
| 1777662263 | 17.78° C | 51% | 1013.2 hPa | 0 mm | - | 997 W/m² | - |
| 1777662204 | 17.78° C | 50% | 1013.2 hPa | 0 mm | - | 930 W/m² | - |
| 1777662145 | 17.78° C | 54% | 1013.2 hPa | 0 mm | - | 861 W/m² | - |
| 1777662081 | 17.78° C | 51% | 1013.2 hPa | 0 mm | - | 940 W/m² | - |
| 1777662021 | 17.22° C | 52% | 1013.2 hPa | 0 mm | - | 983 W/m² | - |
| 1777661960 | 17.22° C | 51% | 1013.2 hPa | 0 mm | - | 958 W/m² | - |
| 1777661899 | 17.22° C | 50% | 1013.3 hPa | 0 mm | - | 1062 W/m² | - |
| 1777661837 | 17.22° C | 54% | 1013.2 hPa | 0 mm | - | 1062 W/m² | - |
| 1777661777 | 17.22° C | 51% | 1013.3 hPa | 0 mm | - | 1062 W/m² | - |
| 1777661714 | 17.22° C | 50% | 1013.4 hPa | 0 mm | - | 1051 W/m² | - |
| 1777661650 | 17.22° C | 50% | 1013.4 hPa | 0 mm | - | 990 W/m² | - |
| 1777661590 | 17.22° C | 52% | 1013.4 hPa | 0 mm | - | 990 W/m² | - |
| 1777661530 | 17.22° C | 52% | 1013.4 hPa | 0 mm | - | 990 W/m² | - |
| 1777661471 | 17.22° C | 50% | 1013.4 hPa | 0 mm | - | 990 W/m² | - |
| 1777661408 | 17.22° C | 51% | 1013.5 hPa | 0 mm | - | 1069 W/m² | - |
| 1777661343 | 17.22° C | 53% | 1013.5 hPa | 0 mm | - | 1074 W/m² | - |
| 1777661282 | 17.22° C | 53% | 1013.5 hPa | 0 mm | - | 986 W/m² | - |
| 1777661222 | 17.22° C | 54% | 1013.4 hPa | 0 mm | - | 956 W/m² | - |
| 1777661161 | 16.67° C | 55% | 1013.5 hPa | 0 mm | - | 1021 W/m² | - |
* Rain latest hour (hover to see other rain measurements)
** Current wind speed in m/s (hover to see current wind gust speed)